Change the Weather History Date:

Thursday, May 29, 2014

  Actual Average Record
Temperature  
Mean Temperature 74 °F 73 °F  
Max Temperature 81 °F 84 °F 94 °F (1904)
Min Temperature 66 °F 63 °F 48 °F (1951)
Cooling Degree Days 8    
Growing Degree Days 22 (Base 50)    
Moisture  
Dew Point 67 °F    
Average Humidity 79    
Maximum Humidity 90    
Minimum Humidity 67    
Precipitation  
Precipitation 0.11 in 0.13 in 1.67 in (2005)
Month to date precipitation 2.52 4.00  
Year to date precipitation 22.94 22.67  
Sea Level Pressure  
Sea Level Pressure 30.02 in    
Wind  
Wind Speed 5 mph (ENE)    
Max Wind Speed 13 mph    
Max Gust Speed 15 mph    
Visibility 9 miles    
Events Rain    
T = Trace of Precipitation, MM = Missing Value Source: NWS Daily Summary

Daily Weather History Graph

Daily Weather History Graph

Search for Another Location

Airport or City:

Trip Planner

Search our weather history database for the weather conditions in past years. The results will help you decide how hot, cold, wet, or windy it might be!

Date:

Astronomy

May. 29, 2014 Rise Set
Actual Time 5:35 AM CDT 7:46 PM CDT
Civil Twilight 5:06 AM CDT 8:15 PM CDT
Nautical Twilight 4:32 AM CDT 8:49 PM CDT
Astronomical Twilight 3:54 AM CDT 9:27 PM CDT
Moon 6:25 AM CDT (5/29) 8:39 PM CDT (5/29)
Length of Visible Light 15h 08m
Length of Day
14h 11m
New Moon, 1% of the Moon is Illuminated
May 29
New Moon
Jun 5
First Quarter
Jun 12
Full
Jun 19
Last Quarter
Jun 27
New

Hourly Weather History & Observations

Time (CDT) Temp. Dew Point Humidity Pressure Visibility Wind Dir Wind Speed Gust Speed Precip Events Conditions
1:53 AM 68.0 °F 63.0 °F 84% 29.97 in 10.0 mi NNE 6.9 mph - N/A   Clear
3:53 AM 66.9 °F 63.0 °F 87% 29.97 in 10.0 mi ENE 5.8 mph - N/A   Clear
4:53 AM 66.9 °F 63.0 °F 87% 29.98 in 10.0 mi NE 5.8 mph - N/A   Clear
5:53 AM 66.9 °F 63.0 °F 87% 29.99 in 10.0 mi NNE 5.8 mph - N/A   Clear
6:53 AM 68.0 °F 63.0 °F 84% 30.01 in 10.0 mi NE 6.9 mph - N/A   Clear
7:53 AM 71.1 °F 64.0 °F 78% 30.02 in 10.0 mi NE 6.9 mph - N/A   Clear
8:53 AM 73.9 °F 64.9 °F 73% 30.03 in 10.0 mi ENE 5.8 mph - N/A   Clear
9:53 AM 78.1 °F 66.9 °F 68% 30.04 in 10.0 mi Variable 5.8 mph - N/A   Partly Cloudy
10:21 AM 78.1 °F 68.0 °F 71% 30.06 in 10.0 mi North 3.5 mph - N/A   Mostly Cloudy
10:44 AM 79.0 °F 68.0 °F 69% 30.06 in 10.0 mi Calm Calm - N/A   Mostly Cloudy
10:53 AM 78.1 °F 68.0 °F 71% 30.04 in 6.0 mi SSW 4.6 mph - 0.00 in Rain Light Rain
11:04 AM 75.9 °F 70.0 °F 82% 30.07 in 2.5 mi SE 10.4 mph - 0.06 in Rain Light Rain
11:13 AM 73.9 °F 66.9 °F 79% 30.07 in 4.0 mi ESE 6.9 mph - 0.06 in Rain Light Rain
11:53 AM 77.0 °F 68.0 °F 74% 30.04 in 10.0 mi Variable 3.5 mph - 0.06 in   Partly Cloudy
12:53 PM 75.9 °F 68.0 °F 76% 30.02 in 10.0 mi Calm Calm - 0.02 in   Mostly Cloudy
1:53 PM 77.0 °F 69.1 °F 76% 30.02 in 10.0 mi SSE 4.6 mph - 0.00 in   Mostly Cloudy
2:53 PM 73.9 °F 69.1 °F 85% 30.02 in 9.0 mi NE 4.6 mph - 0.02 in Rain Light Rain
3:53 PM 75.0 °F 69.1 °F 82% 30.00 in 10.0 mi East 4.6 mph - 0.01 in   Scattered Clouds
5:53 PM 77.0 °F 68.0 °F 74% 29.98 in 10.0 mi East 5.8 mph - N/A   Clear
6:53 PM 75.0 °F 69.1 °F 82% 29.98 in 10.0 mi East 3.5 mph - N/A   Scattered Clouds
7:53 PM 73.0 °F 69.1 °F 87% 29.99 in 10.0 mi ENE 3.5 mph - N/A   Clear
8:53 PM 73.0 °F 69.1 °F 87% 30.00 in 10.0 mi ENE 3.5 mph - N/A   Partly Cloudy
9:53 PM 73.0 °F 69.1 °F 87% 30.01 in 10.0 mi NE 3.5 mph - N/A   Mostly Cloudy
10:53 PM 72.0 °F 68.0 °F 87% 30.03 in 10.0 mi NE 3.5 mph - N/A   Overcast
11:53 PM 72.0 °F 68.0 °F 87% 30.03 in 10.0 mi Calm Calm - 0.00 in   Overcast